LEMUR-2-THEODOSIA (44863 NORAD) Tracking and Keplerian Element Data

This shows tracking and keplerian element data for the satellite.

Feedback or suggestion? Click here.




ElementValue
Catalog44863
NameLEMUR-2-THEODOSIA
Epoch Orbit620
Epoch Day22.95961831
Epoch Year2020
RAAN244.1437
Inclination36.9668
Eccentricity0.0007932
Argument of Perigee304.2776
Mean Anonmoly55.7219
Mean Motion14.98671167
Decay Rate2.76E-06
L11 44863U 19089M 20022.95961831 .00000276 00000-0 29001-4 0 9991
L22 44863 36.9668 244.1437 0007932 304.2776 55.7219 14.98671167 6207

Live tracking and technical data element details for LEMUR-2-THEODOSIA (NORAD 44863). LEMUR-2-THEODOSIA can be tracked NOW for your location showing map with azimuth and elevation plus other details from your city location.

Track the satellite on the map from your city or location and see movement details for azimuth, elevation, latitude, longitude, range, height, and movement on the map or in text.







IsCatalogInMostPopularTable: catalog: 44863, numindb: 11
Update: records affected: 1



GetName: 44863 LEMUR-2-THEODOSIA

Hit Count: updated at: Fri, 24 Jan 2020 13:32:32 GMT